sat.trackr.live / text

‹ back to catalog

2023-091E

NORAD 57170 · 2023-091E

PAYLOAD ACTIVE UNKNOWN

§ Identity

Operator
Country
CIS
Launch date
2023-06-27
Launch site
VOSTO
Launch vehicle
Mass (kg)
RCS (m²)

External: N2YO · Heavens-Above · Gunter

§ Orbital elements

Epoch: 2026-05-25T04:56:09.398112Z

Period
94.50 min
Inclination
97.5130°
Eccentricity
0.0009853
Mean motion
15.23745786 rev/d
Perigee alt
487.8 km
Apogee alt
501.3 km
Semi-major
6,872.7 km
B*
3.4794e-4
RAAN
206.7781°
Arg perigee
163.8578°
Mean anomaly
196.2975°
Rev number
16,066

§ Raw data

2023-091E1 57170U 23091E   26145.20566433  .00008305  00000+0  34794-3 0  99972 57170  97.5130 206.7781 0009853 163.8578 196.2975 15.23745786160667

JSON: /api/v1/satellites/57170 · /tle

For live sub-satellite position, see the globe view (requires WebGL).

§ Visibility from observer

Set your observer location to see the next 7 days of passes ≥ 10°. The values pass through the URL so the page stays shareable.

No JS? Fill the form by hand. The geolocation button needs JavaScript.